Regional Weather Roundup
Issued by NWS Charleston, SC

Current Version | Previous Version | Text Only | Print | Product List | Glossary Off
Versions: 1 2 3 4 5 6 7 8 9 10 11 12 13 14 15 16 17 18 19 20 21 22 23 24 25 26 27 28 29 30 31 32 33 34 35 36 37 38 39 40 41 42 43 44 45 46 47 48 49 50
000 ASUS42 KCHS 240512 RWRCHS REGIONAL WEATHER ROUNDUP NATIONAL WEATHER SERVICE CHARLESTON SC 100 AM EDT FRI MAR 24 2017 NOTE: "FAIR" INDICATES FEW OR NO CLOUDS BELOW 12,000 FEET WITH NO SIGNIFICANT WEATHER AND/OR OBSTRUCTIONS TO VISIBILITY. NOT ALL STATIONS ARE QUALITY CONTROLLED. USE DATA WITH CAUTION... ESPECIALLY DEWPOINT OBSERVATIONS. SCZ027-030-031-034>040-042>050-240600- ...SOUTHEAST SOUTH CAROLINA... CITY SKY/WX TMP DP RH WIND PRES REMARKS N CHARLESTON CLEAR 49 42 77 NE7 30.49S WATERFRONT PRK N/A 55 49 80 NE10 30.48S JOHNS ISLAND FAIR 54 48 82 NE9 30.48F PINOPOLIS N/A 48 41 76 E6 30.42S MONCKS CORNER FAIR 45 36 70 NE3 30.51S SUMMERVILLE FAIR 45 39 81 CALM 30.50F BEAUFORT MCAS CLEAR 48 42 80 NE6 30.48S BEAUFORT ARPT FAIR 52 46 82 NE10 30.47S HILTON HEAD IS CLOUDY N/A N/A N/A NE9 30.47S WALTERBORO CLEAR 46 37 71 CALM 30.50S ALLENDALE MOCLDY 50 37 62 CALM 30.48S ...SOUTHERN MIDLANDS AND PEE DEE... CITY SKY/WX TMP DP RH WIND PRES REMARKS GEORGETOWN FAIR 50 45 81 E8 30.51F KINGSTREE FAIR 39 34 81 CALM 30.52S ORANGEBURG CLEAR 46 37 71 CALM 30.51S BARNWELL FAIR 52 39 62 E5 30.49S AIKEN FAIR 48 34 57 E5 30.51S MANNING FAIR 41 34 75 CALM 30.52S COLUMBIA PTCLDY 48 35 60 E6 30.50S SUMTER CLEAR 42 34 72 E5 30.49F FLORENCE CLEAR 43 34 70 E6 30.53S MYRTLE BEACH CLEAR 52 39 62 E10 30.53F N MYRTLE BEACH CLEAR 41 36 82 NE5 30.53S $$ GAZ063-065-086>088-099>101-113>116-118-119-134>141-150-240600- ...SOUTHEAST GEORGIA... CITY SKY/WX TMP DP RH WIND PRES REMARKS SAVANNAH ARPT CLEAR 52 45 77 NE6 30.46 HUNTER AAF CLEAR 54 51 91 NE6 30.43S FORT STEWART CLEAR 51 48 87 NE5 30.43S STATESBORO PTCLDY 52 45 76 E3 30.48R SYLVANIA CLEAR N/A N/A N/A E5 30.48S CLAXTON FAIR N/A N/A N/A NE6 30.47R ...CSRA...CENTRAL AND FAR SOUTHEAST GEORGIA... CITY SKY/WX TMP DP RH WIND PRES REMARKS THOMSON CLEAR 53 36 51 S5 30.51S AUGUSTA-BUSH PTCLDY 53 38 56 SE5 30.48S AUGUSTA-DANIEL PTCLDY 54 35 48 SE7 30.48R SWAINSBORO CLOUDY 55 45 67 SE6 30.47R VIDALIA CLEAR 54 46 76 E8 30.46R EASTMAN CLOUDY 58 36 43 SE3 30.47R HAZLEHURST FAIR 55 52 91 E3 30.43S ALMA CLOUDY 53 51 93 CALM 30.43S WAYCROSS CLOUDY 59 58 96 E7 30.43S JESUP MOCLDY 54 50 87 NE5 30.44S BAXLEY CLOUDY 54 54 100 NE3 30.44R BRUNSWICK PTCLDY 57 57 100 NE6 30.43S SAINT SIMONS CLOUDY 60 56 86 NE12 30.41F $$ SCZ027-028-034-036>038-045-046-048>050-GAZ119-141-240600- ...LAKE AND SUPPLEMENTAL COASTAL OBSERVATIONS... STATION/POSITION TIME TEMP WIND PRES WAVE SWELL AIR SEA DIR/SP/G HT/PER HT/PER/DIR (UTC) (F) (DEG/KT/KT) (MB) (FT/S) (FT/S/D) WINYAH BAY NOT AVBL LAKE MURRAY 0420 53 130/ 4/ 7 1032.2R ACE BASIN NERRS NOT AVBL FORT PULASKI 0436 58 60 70/ 16/ 21 1031.4F SAPELO ISLAND 0400 58 40/ 9 1030.0 $$ ANZ835-935-AMZ111-154-330-350-352-354-370-450-454-472-240600- ...C-MAN AND BUOY OBSERVATIONS... STATION/POSITION TIME TEMP WIND PRES WAVE SWELL AIR SEA DIR/SP/G HT/PER HT/PER/DIR (UTC) (F) (DEG/KT/KT) (MB) (FT/S) (FT/S/D) BUOY 41004 0350 64 71 80/ 17/ 23 1031.0 6/ 7 3/ 90/ 9 BUOY 41008 0350 63 61 70/ 14/ 17 1029.7 6/ 7 3/ 90/ 7 FOLLY BEACH CMAN 0400 57 60/ 18/ 21 1032.7R CAPERS NEARSHORE 0408 57 60/ 17/ 23 1032.0F FRIPP NEARSHORE 0408 58 60 60/ 17/ 21 1031.4F STATION/POSITION TIME TEMP WIND PRES WAVE SWELL AIR SEA DIR/SP/G HT/PER HT/PER/DIR (UTC) (F) (DEG/KT/KT) (MB) (FT/S) (FT/S/D) 5E ST. MARYS GA 0430 63 N/A 5/ 7 2/ 90/11 FRYING PAN BUOY 0450 59 66 60/ 14/ 17 1033.2F 5/ 7 3/110/10 BUOY 41025 0450 53 71 40/ 10/ 16 1035.0F 7/10 7/ 60/10 CAPE LOOKOUT NC 0400 46 10/ 10/ 13 1034.7R BUOY 41002 0350 62 72 50/ 16/ 19 1032.3 6/10 5/ 30/10 BUOY 41010 NOT AVBL ST AUGUSTINE FL 0500 66 65 90/ 16/ 18 1029.3F $$

USA.gov is the U.S. government's official web portal to all federal, state and local government web resources and services.